{"data":{"norad_id":38038,"epoch":"2026-09-20T04:21:07.604928Z","epoch_age_seconds":42577,"freshness":"FRESH","line1":"1 38038U 11079A   26263.18133802  .00000221  00000+0  86886-4 0  9999","line2":"2 38038  98.3981 328.4638 0007067  32.6084  52.8820 14.38275984772865","mean_motion":14.38275984,"eccentricity":0.0007067,"inclination_deg":98.3981,"raan_deg":328.4638,"arg_perigee_deg":32.6084,"mean_anomaly_deg":52.882,"bstar":8.6886e-5,"rev_number":77286,"period_min":100.11986684191,"perigee_km":759.15280024043,"apogee_km":769.24777976612,"semimajor_km":7142.3372900033,"source":"CELESTRAK","updated_at":"2026-09-20T09:00:33.892833Z"}}